Change the Weather History Date:

Monday, May 27, 2013

  Actual Average Record
Temperature  
Mean Temperature 76 °F -  
Max Temperature 86 °F 83 °F 91 °F (2006)
Min Temperature 70 °F 63 °F 59 °F (2011)
Cooling Degree Days 11    
Growing Degree Days 26 (Base 50)    
Moisture  
Dew Point 67 °F    
Average Humidity 78    
Maximum Humidity 84    
Minimum Humidity 54    
Precipitation  
Precipitation 0.00 in - - ()
Sea Level Pressure  
Sea Level Pressure 29.90 in    
Wind  
Wind Speed 8 mph (SSE)    
Max Wind Speed 15 mph    
Max Gust Speed 24 mph    
Visibility 10 miles    
Events      
Averages and records for this station are not official NWS values.
T = Trace of Precipitation, MM = Missing Value Source: NWS Daily Summary

Daily Weather History Graph

Daily Weather History Graph

Search for Another Location

Airport or City:

Trip Planner

Search our weather history database for the weather conditions in past years. The results will help you decide how hot, cold, wet, or windy it might be!

Date:

Astronomy

May. 27, 2013 Rise Set
Actual Time 6:18 AM CDT 8:32 PM CDT
Civil Twilight 5:50 AM CDT 9:00 PM CDT
Nautical Twilight 5:15 AM CDT 9:35 PM CDT
Astronomical Twilight 4:37 AM CDT 10:13 PM CDT
Moon 11:15 PM CDT (5/27) 8:55 AM CDT (5/27)
Length of Visible Light 15h 10m
Length of Day
14h 13m
Waning Gibbous, 91% of the Moon is Illuminated
May 27
Waning Gibbous
May 31
Last Quarter
Jun 8
New
Jun 16
First Quarter
Jun 23
Full

Hourly Weather History & Observations

Time (CDT) Temp. Heat Index Dew Point Humidity Pressure Visibility Wind Dir Wind Speed Gust Speed Precip Events Conditions
12:15 AM 75.4 °F - 68.2 °F 78% 29.96 in 10.0 mi SE 8.1 mph - N/A   Scattered Clouds
12:35 AM 75.2 °F - 68.0 °F 78% 29.96 in 10.0 mi SE 8.1 mph - N/A   Clear
12:55 AM 74.7 °F - 68.2 °F 80% 29.96 in 10.0 mi SE 8.1 mph - N/A   Clear
1:15 AM 74.3 °F - 68.2 °F 81% 29.95 in 10.0 mi SE 5.8 mph - N/A   Clear
1:35 AM 74.1 °F - 68.2 °F 82% 29.94 in 10.0 mi SE 5.8 mph - N/A   Clear
1:55 AM 73.6 °F - 68.0 °F 83% 29.94 in 10.0 mi SSE 6.9 mph - N/A   Clear
2:15 AM 73.4 °F - 68.2 °F 84% 29.93 in 10.0 mi SSE 6.9 mph - N/A   Clear
2:35 AM 73.6 °F - 68.4 °F 84% 29.92 in 10.0 mi SSE 8.1 mph - N/A   Clear
2:55 AM 73.8 °F - 68.0 °F 82% 29.91 in 10.0 mi SSE 9.2 mph - N/A   Clear
3:15 AM 73.8 °F - 68.0 °F 82% 29.91 in 10.0 mi SSE 8.1 mph - N/A   Clear
3:35 AM 73.6 °F - 67.5 °F 81% 29.90 in 10.0 mi SSE 9.2 mph - N/A   Clear
3:55 AM 73.6 °F - 67.3 °F 81% 29.90 in 10.0 mi South 8.1 mph - N/A   Clear
4:15 AM 73.4 °F - 66.7 °F 80% 29.89 in 10.0 mi South 9.2 mph - N/A   Clear
4:35 AM 72.9 °F - 66.6 °F 81% 29.89 in 10.0 mi South 8.1 mph - N/A   Clear
4:55 AM 72.7 °F - 66.2 °F 80% 29.89 in 10.0 mi South 8.1 mph - N/A   Clear
5:15 AM 72.5 °F - 66.2 °F 81% 29.90 in 10.0 mi South 5.8 mph - N/A   Clear
5:35 AM 72.0 °F - 65.7 °F 80% 29.91 in 10.0 mi SSE 6.9 mph - N/A   Clear
5:55 AM 71.6 °F - 65.3 °F 80% 29.92 in 10.0 mi SSE 5.8 mph - N/A   Clear
6:15 AM 71.6 °F - 65.3 °F 80% 29.92 in 10.0 mi SSE 5.8 mph - N/A   Clear
6:35 AM 70.9 °F - 65.3 °F 82% 29.93 in 10.0 mi SE 3.5 mph - N/A   Clear
3:55 PM 82.4 °F 83.9 °F 64.4 °F 54% 29.85 in 10.0 mi South 15.0 mph 24.2 mph N/A   Overcast
7:55 PM 80.6 °F 82.3 °F 64.4 °F 58% 29.80 in 10.0 mi SSE 10.4 mph - N/A   Scattered Clouds
11:35 PM 75.0 °F - 65.3 °F 72% 29.82 in 10.0 mi SE 8.1 mph - N/A   Clear
11:55 PM 74.7 °F - 65.5 °F 73% 29.80 in 10.0 mi SSE 10.4 mph - N/A   Clear